Location: Kearney
(40.6990°N, 99.0810°W)
Time: 07:09:39
(UTC-05:00)

PSLV R/B - Pass Details

Date: 18 December 2017
Orbit: 346 x 381 km, 41.0° (Epoch: 20 August)

Event Time Altitude Azimuth Distance (km) Brightness Sun altitude
Rises 18:48:05 0° 277° (W) 2,285 8.2 -17.7°
Reaches altitude 10° 18:50:12 10° 277° (W) 1,414 6.9 -18.1°
Maximum altitude 18:53:24 86° 187° (S) 384 2.9 -18.7°
Enters shadow 18:53:34 78° 117° (ESE) 391 2.9 -18.7°
